Printer-friendly version

IAU Minor Planet Center

Minor Planet Center

C/2009 U3 (Hill)

Orbital Elements

The following orbital elements are taken from MPC 67973:
C/2009 U3 (Hill)
Epoch 2010 Mar. 25.0 TT = JDT 2455280.5
T 2010 Mar. 20.2539 TT                                  MPC
q   1.414469             (2000.0)            P               Q
z  +0.005887       Peri.   77.6997      -0.3248143      -0.7379398
 +/-0.000041       Node    49.3223      +0.2107026      -0.6662139
e   0.991673       Incl.   51.2624      +0.9220087      -0.1077217
From 344 observations 2009 Oct. 21-Dec. 22, mean residual 0".7.
Elements are also available for the current standard epoch:
C/2009 U3 (Hill)
Epoch 2010 Jan. 4.0 TT = JDT 2455200.5
T 2010 Mar. 20.2541 TT                                  MPC
q   1.414473             (2000.0)            P               Q
z  +0.005919       Peri.   77.6991      -0.3248087      -0.7379355
 +/-0.000041       Node    49.3229      +0.2107022      -0.6662197
e   0.991628       Incl.   51.2627      +0.9220108      -0.1077145
An explanation of the orbital elements is available.

These orbital elements are also available in forms suitable for loading into a number of popular planetarium-type software programs.


Ephemeris

The following ephemeris is at intervals of five days. A daily ephemeris covering the same time interval is also available.

Personalized ephemerides for this (and other) objects may be generated using the Minor Planet & Comet Ephemeris Service.

Recent magnitude estimates for this comet (as reported to the ICQ) may be available.

Date    TT    R. A. (2000) Decl.     Delta      r     Elong.  Phase   m1    m2

WARNING!

This comet gets close to the sun during the period covered in the ephemeris below. Observers are warned to be wary of observing comets near the sun. NEVER point any kind of optical instrument at the sun--instant blindness will be the probable result.

2010 01 24 00 52.37 +42 54.9 1.329 1.618 87.5 37.4 15.7 2010 01 29 00 51.32 +44 24.7 1.352 1.586 83.9 38.1 15.7 2010 02 03 00 51.41 +45 59.4 1.373 1.555 80.7 38.7 15.6 2010 02 08 00 52.60 +47 39.4 1.391 1.527 77.9 39.2 15.6 2010 02 13 00 54.91 +49 25.3 1.406 1.502 75.5 39.5 15.5 2010 02 18 00 58.36 +51 17.5 1.419 1.480 73.4 39.8 15.5 2010 02 23 01 03.01 +53 16.2 1.428 1.460 71.7 40.0 15.4 2010 02 28 01 08.98 +55 21.6 1.435 1.444 70.4 40.2 15.4 2010 03 05 01 16.48 +57 33.6 1.439 1.431 69.4 40.4 15.3 2010 03 10 01 25.82 +59 52.1 1.440 1.422 68.7 40.6 15.3 2010 03 15 01 37.49 +62 16.6 1.439 1.416 68.4 40.8 15.3 2010 03 20 01 52.18 +64 46.1 1.436 1.414 68.4 40.9 15.3 2010 03 25 02 10.98 +67 18.7 1.431 1.416 68.7 41.0 15.3 2010 03 30 02 35.48 +69 50.8 1.426 1.421 69.2 41.1 15.3 2010 04 04 03 08.09 +72 16.1 1.421 1.430 70.0 41.1 15.3 2010 04 09 03 51.93 +74 23.7 1.416 1.443 70.9 41.0 15.3 2010 04 14 04 49.60 +75 56.5 1.413 1.458 72.0 40.8 15.4 2010 04 19 05 59.47 +76 32.3 1.412 1.477 73.2 40.6 15.4 2010 04 24 07 12.22 +75 54.8 1.414 1.500 74.5 40.2 15.5 2010 04 29 08 16.30 +74 05.6 1.420 1.524 75.7 39.8 15.6 2010 05 04 09 06.76 +71 20.8 1.431 1.552 76.9 39.2 15.7 2010 05 09 09 44.95 +67 58.7 1.448 1.582 77.9 38.6 15.8 2010 05 14 10 14.06 +64 13.5 1.470 1.615 78.8 37.9 15.9 2010 05 19 10 36.85 +60 15.3 1.499 1.649 79.5 37.1 16.1 2010 05 24 10 55.26 +56 11.2 1.535 1.686 80.0 36.3 16.2 2010 05 29 11 10.60 +52 06.5 1.578 1.724 80.2 35.4 16.4 2010 06 03 11 23.74 +48 05.0 1.628 1.764 80.1 34.5 16.5 2010 06 08 11 35.27 +44 09.6 1.685 1.805 79.7 33.6 16.7 2010 06 13 11 45.63 +40 22.2 1.748 1.848 79.1 32.7 16.9 2010 06 18 11 55.09 +36 44.3 1.817 1.891 78.2 31.7 17.1 2010 06 23 12 03.86 +33 16.7 1.892 1.936 77.0 30.8 17.3 2010 06 28 12 12.09 +29 59.9 1.971 1.982 75.7 29.8 17.4 2010 07 03 12 19.90 +26 53.8 2.056 2.028 74.1 28.8 17.6 2010 07 08 12 27.37 +23 58.1 2.144 2.075 72.3 27.8 17.8 2010 07 13 12 34.58 +21 12.6 2.235 2.123 70.4 26.8 18.0 2010 07 18 12 41.58 +18 36.6 2.330 2.171 68.3 25.8 18.2 2010 07 23 12 48.39 +16 09.8 2.427 2.220 66.2 24.7 18.4 2010 07 28 12 55.07 +13 51.5 2.525 2.269 63.8 23.7 18.6 2010 08 02 13 01.62 +11 41.0 2.625 2.318 61.4 22.6 18.7 2010 08 07 13 08.07 +09 37.8 2.726 2.368 58.9 21.5 18.9 2010 08 12 13 14.44 +07 41.4 2.828 2.418 56.3 20.4 19.1 2010 08 17 13 20.75 +05 51.2 2.929 2.468 53.7 19.3 19.3 2010 08 22 13 27.00 +04 06.9 3.030 2.519 51.0 18.2 19.4 2010 08 27 13 33.19 +02 27.8 3.130 2.569 48.2 17.0 19.6 2010 09 01 13 39.34 +00 53.7 3.229 2.620 45.3 15.9 19.7 2010 09 06 13 45.46 -00 35.8 3.327 2.670 42.4 14.8 19.9 2010 09 11 13 51.53 -02 01.2 3.422 2.721 39.4 13.6 20.0 2010 09 16 13 57.58 -03 22.6 3.516 2.772 36.4 12.4 20.2 2010 09 21 14 03.59 -04 40.3 3.607 2.823 33.4 11.3 20.3 2010 09 26 14 09.56 -05 54.6 3.695 2.874 30.3 10.1 20.4 2010 10 01 14 15.50 -07 05.8 3.780 2.924 27.1 9.0 20.5 2010 10 06 14 21.41 -08 14.0 3.861 2.975 23.9 7.8 20.7 2010 10 11 14 27.28 -09 19.4 3.939 3.026 20.7 6.7 20.8 2010 10 16 14 33.11 -10 22.1 4.013 3.077 17.4 5.6 20.9 2010 10 21 14 38.89 -11 22.4 4.083 3.127 14.1 4.5 21.0 2010 10 26 14 44.62 -12 20.4 4.149 3.178 10.8 3.4 21.1 2010 10 31 14 50.29 -13 16.1 4.210 3.228 7.4 2.3 21.2 2010 11 05 14 55.90 -14 09.8 4.267 3.278 4.2 1.3 21.3 2010 11 10 15 01.44 -15 01.5 4.318 3.329 2.0 0.6 21.4 2010 11 15 15 06.90 -15 51.4 4.365 3.379 4.0 1.2 21.5 2010 11 20 15 12.27 -16 39.5 4.407 3.429 7.3 2.1 21.6 2010 11 25 15 17.55 -17 25.9 4.443 3.479 10.9 3.1 21.7 2010 11 30 15 22.72 -18 10.8 4.475 3.529 14.5 4.0 21.7 2010 12 05 15 27.77 -18 54.2 4.501 3.578 18.3 4.9 21.8 2010 12 10 15 32.69 -19 36.3 4.522 3.628 22.0 5.8 21.9 2010 12 15 15 37.46 -20 17.0 4.538 3.677 25.9 6.7 21.9 2010 12 20 15 42.07 -20 56.5 4.548 3.727 29.8 7.5 22.0 2010 12 25 15 46.50 -21 35.0 4.554 3.776 33.7 8.3 22.1 2010 12 30 15 50.75 -22 12.4 4.555 3.825 37.7 9.1 22.1 2011 01 04 15 54.79 -22 48.8 4.551 3.874 41.8 9.7 22.2 2011 01 09 15 58.61 -23 24.4 4.542 3.923 45.9 10.4 22.2 2011 01 14 16 02.18 -23 59.2 4.530 3.971 50.1 11.0 22.3 2011 01 19 16 05.49 -24 33.2 4.513 4.020 54.4 11.5 22.3 2011 01 24 16 08.51 -25 06.7 4.492 4.068 58.7 11.9 22.4 2011 01 29 16 11.23 -25 39.5 4.468 4.117 63.1 12.3 22.4 2011 02 03 16 13.63 -26 11.8 4.441 4.165 67.5 12.6 22.4 2011 02 08 16 15.68 -26 43.6 4.411 4.213 72.0 12.9 22.5 2011 02 13 16 17.36 -27 15.0 4.379 4.260 76.6 13.0 22.5 2011 02 18 16 18.65 -27 45.9 4.346 4.308 81.3 13.1 22.5 2011 02 23 16 19.54 -28 16.3 4.311 4.356 86.0 13.1 22.6 2011 02 28 16 20.00 -28 46.3 4.276 4.403 90.8 13.0 22.6

Valid HTML 4.01!